Time,TemperatureF,DewpointF,PressureIn,WindDirection,WindDirectionDegrees,WindSpeedMPH,WindSpeedGustMPH,Humidity,HourlyPrecipIn,Conditions,Clouds,dailyrainin,SoftwareType,DateUTC
2013-04-13 00:01:00,41.9,35.1,29.97,SW,225,5.3,7.8,77,0.00,,,0.00,WUHU21636XXSP,2013-04-13 05:01:00,
2013-04-13 00:07:00,41.9,35.1,29.97,WSW,247,2.4,8.7,77,0.00,,,0.00,WUHU21636XXSP,2013-04-13 05:07:00,
2013-04-13 00:12:00,41.9,35.1,29.96,SSW,202,3.8,8.7,77,0.00,,,0.00,WUHU21636XXSP,2013-04-13 05:12:00,
2013-04-13 00:17:00,41.9,35.1,29.96,West,270,1.1,3.8,77,0.00,,,0.00,WUHU21636XXSP,2013-04-13 05:17:00,
2013-04-13 00:22:00,41.7,34.9,29.97,WNW,292,4.0,7.3,77,0.00,,,0.00,WUHU21636XXSP,2013-04-13 05:22:00,
2013-04-13 00:27:00,41.9,34.7,29.97,West,270,0.0,7.3,76,0.00,,,0.00,WUHU21636XXSP,2013-04-13 05:27:00,
2013-04-13 00:32:00,42.1,34.9,29.97,West,270,3.8,7.1,76,0.00,,,0.00,WUHU21636XXSP,2013-04-13 05:32:00,
2013-04-13 00:37:00,41.9,34.7,29.97,West,270,2.0,6.7,76,0.00,,,0.00,WUHU21636XXSP,2013-04-13 05:37:00,
2013-04-13 00:42:00,41.9,34.7,29.98,West,270,2.2,6.4,76,0.00,,,0.00,WUHU21636XXSP,2013-04-13 05:42:00,
2013-04-13 00:47:00,41.9,34.7,29.99,West,270,5.8,8.0,76,0.00,,,0.00,WUHU21636XXSP,2013-04-13 05:47:00,
2013-04-13 00:52:00,41.9,34.2,29.98,West,270,4.2,8.0,74,0.00,,,0.00,WUHU21636XXSP,2013-04-13 05:52:00,
2013-04-13 00:57:00,42.1,34.0,29.99,West,270,0.0,5.8,73,0.00,,,0.00,WUHU21636XXSP,2013-04-13 05:57:00,
2013-04-13 01:02:00,42.1,34.0,29.98,West,270,2.4,4.2,74,0.00,,,0.00,WUHU21636XXSP,2013-04-13 06:02:00,
2013-04-13 01:07:00,42.1,34.0,29.98,West,270,2.4,2.4,74,0.00,,,0.00,WUHU21636XXSP,2013-04-13 06:07:00,
2013-04-13 01:12:00,41.9,34.5,29.98,West,270,4.6,4.6,75,0.00,,,0.00,WUHU21636XXSP,2013-04-13 06:12:00,
2013-04-13 01:17:00,41.9,34.7,29.98,WSW,247,0.0,4.6,76,0.00,,,0.00,WUHU21636XXSP,2013-04-13 06:17:00,
2013-04-13 01:22:00,41.7,34.9,29.98,WSW,247,3.3,4.6,77,0.00,,,0.00,WUHU21636XXSP,2013-04-13 06:22:00,
2013-04-13 01:27:00,41.7,34.9,29.98,WSW,247,0.8,4.2,77,0.00,,,0.00,WUHU21636XXSP,2013-04-13 06:27:00,
2013-04-13 01:32:00,41.7,34.9,29.98,West,270,2.4,8.7,77,0.00,,,0.00,WUHU21636XXSP,2013-04-13 06:32:00,
2013-04-13 01:37:00,41.7,34.9,29.97,West,270,0.0,8.7,77,0.00,,,0.00,WUHU21636XXSP,2013-04-13 06:37:00,
2013-04-13 01:42:00,41.7,34.5,29.97,West,270,6.7,6.7,76,0.00,,,0.00,WUHU21636XXSP,2013-04-13 06:42:00,
2013-04-13 01:49:00,41.9,34.5,29.97,West,270,4.0,10.5,75,0.00,,,0.00,WUHU21636XXSP,2013-04-13 06:49:00,
2013-04-13 01:54:00,41.7,34.3,29.97,West,270,2.6,6.0,75,0.00,,,0.00,WUHU21636XXSP,2013-04-13 06:54:00,
2013-04-13 01:59:00,41.7,33.6,29.97,WNW,292,7.8,8.9,73,0.00,,,0.00,WUHU21636XXSP,2013-04-13 06:59:00,
2013-04-13 02:04:00,41.7,33.6,29.97,WNW,292,3.8,8.9,73,0.00,,,0.00,WUHU21636XXSP,2013-04-13 07:04:00,
2013-04-13 02:09:00,41.7,33.6,29.97,WNW,292,3.8,7.8,73,0.00,,,0.00,WUHU21636XXSP,2013-04-13 07:09:00,
2013-04-13 02:14:00,41.7,33.6,29.96,West,270,2.4,3.8,73,0.00,,,0.00,WUHU21636XXSP,2013-04-13 07:14:00,
2013-04-13 02:19:00,41.7,33.6,29.96,West,270,0.6,3.8,73,0.00,,,0.00,WUHU21636XXSP,2013-04-13 07:19:00,
2013-04-13 02:24:00,41.5,33.4,29.96,West,270,1.1,2.4,73,0.00,,,0.00,WUHU21636XXSP,2013-04-13 07:24:00,
2013-04-13 02:29:00,41.5,33.4,29.96,West,270,0.0,1.1,73,0.00,,,0.00,WUHU21636XXSP,2013-04-13 07:29:00,
2013-04-13 02:34:00,41.5,33.4,29.96,West,270,2.4,2.4,73,0.00,,,0.00,WUHU21636XXSP,2013-04-13 07:34:00,
2013-04-13 02:39:00,41.5,33.8,29.96,West,270,0.0,2.4,74,0.00,,,0.00,WUHU21636XXSP,2013-04-13 07:39:00,
2013-04-13 02:44:00,41.4,33.6,29.96,WSW,247,0.4,2.4,74,0.00,,,0.00,WUHU21636XXSP,2013-04-13 07:44:00,
2013-04-13 02:49:00,41.4,33.6,29.96,West,270,0.0,2.2,74,0.00,,,0.00,WUHU21636XXSP,2013-04-13 07:49:00,
2013-04-13 02:54:00,41.2,33.4,29.96,West,270,0.0,2.2,74,0.00,,,0.00,WUHU21636XXSP,2013-04-13 07:54:00,
2013-04-13 02:59:00,41.2,33.4,29.96,WSW,247,0.0,0.2,74,0.00,,,0.00,WUHU21636XXSP,2013-04-13 07:59:00,
2013-04-13 03:04:00,41.2,33.4,29.96,WSW,247,0.0,0.0,74,0.00,,,0.00,WUHU21636XXSP,2013-04-13 08:04:00,
2013-04-13 03:09:00,41.4,34.0,29.96,West,270,0.0,0.0,75,0.00,,,0.00,WUHU21636XXSP,2013-04-13 08:09:00,
2013-04-13 03:14:00,41.2,33.8,29.95,SW,225,0.2,0.2,75,0.00,,,0.00,WUHU21636XXSP,2013-04-13 08:14:00,
2013-04-13 03:20:00,41.4,34.0,29.96,WSW,247,1.1,1.1,76,0.00,,,0.00,WUHU21636XXSP,2013-04-13 08:20:00,
2013-04-13 03:25:00,41.2,34.0,29.96,WSW,247,2.9,2.9,77,0.00,,,0.00,WUHU21636XXSP,2013-04-13 08:25:00,
2013-04-13 03:30:00,41.2,34.3,29.96,WSW,247,3.1,8.2,77,0.00,,,0.00,WUHU21636XXSP,2013-04-13 08:30:00,
2013-04-13 03:35:00,41.2,34.7,29.96,WNW,292,4.6,8.2,78,0.00,,,0.00,WUHU21636XXSP,2013-04-13 08:35:00,
2013-04-13 03:40:00,41.2,34.7,29.96,West,270,1.7,7.3,78,0.00,,,0.00,WUHU21636XXSP,2013-04-13 08:40:00,
2013-04-13 03:45:00,41.2,34.7,29.96,SW,225,3.5,4.4,79,0.00,,,0.00,WUHU21636XXSP,2013-04-13 08:45:00,
2013-04-13 03:50:00,41.2,34.7,29.96,WSW,247,0.0,3.8,79,0.00,,,0.00,WUHU21636XXSP,2013-04-13 08:50:00,
2013-04-13 03:55:00,40.8,34.7,29.96,WSW,247,1.3,6.9,79,0.00,,,0.00,WUHU21636XXSP,2013-04-13 08:55:00,
2013-04-13 04:00:00,40.8,34.7,29.96,WSW,247,2.4,6.9,79,0.00,,,0.00,WUHU21636XXSP,2013-04-13 09:00:00,
2013-04-13 04:05:00,40.8,34.7,29.96,SW,225,1.1,2.4,79,0.00,,,0.00,WUHU21636XXSP,2013-04-13 09:05:00,
2013-04-13 04:10:00,40.8,34.7,29.96,WSW,247,1.5,2.4,79,0.00,,,0.00,WUHU21636XXSP,2013-04-13 09:10:00,
2013-04-13 04:15:00,40.8,34.7,29.96,West,270,3.8,3.8,79,0.00,,,0.00,WUHU21636XXSP,2013-04-13 09:15:00,
2013-04-13 04:21:00,40.8,34.7,29.96,WSW,247,2.0,3.8,80,0.00,,,0.00,WUHU21636XXSP,2013-04-13 09:21:00,
2013-04-13 04:26:00,40.8,34.7,29.95,WSW,247,3.1,12.3,79,0.00,,,0.00,WUHU21636XXSP,2013-04-13 09:26:00,
2013-04-13 04:31:00,40.8,34.7,29.96,West,270,3.3,12.3,79,0.00,,,0.00,WUHU21636XXSP,2013-04-13 09:31:00,
2013-04-13 04:36:00,40.6,34.9,29.96,West,270,2.6,8.7,80,0.00,,,0.00,WUHU21636XXSP,2013-04-13 09:36:00,
2013-04-13 04:41:00,40.6,34.9,29.96,SW,225,4.2,10.2,80,0.00,,,0.00,WUHU21636XXSP,2013-04-13 09:41:00,
2013-04-13 04:46:00,40.6,34.9,29.95,West,270,1.3,10.2,80,0.00,,,0.00,WUHU21636XXSP,2013-04-13 09:46:00,
2013-04-13 04:51:00,40.3,34.5,29.95,WSW,247,1.3,9.1,80,0.00,,,0.00,WUHU21636XXSP,2013-04-13 09:51:00,
2013-04-13 04:56:00,40.1,34.7,29.96,WSW,247,0.0,9.1,81,0.00,,,0.00,WUHU21636XXSP,2013-04-13 09:56:00,
2013-04-13 05:02:00,39.9,34.5,29.96,West,270,3.5,3.8,81,0.00,,,0.00,WUHU21636XXSP,2013-04-13 10:02:00,
2013-04-13 05:07:00,39.9,34.5,29.96,West,270,0.0,3.8,82,0.00,,,0.00,WUHU21636XXSP,2013-04-13 10:07:00,
2013-04-13 05:12:00,39.4,34.3,29.95,West,270,0.0,3.5,82,0.00,,,0.00,WUHU21636XXSP,2013-04-13 10:12:00,
2013-04-13 05:17:00,39.2,34.2,29.95,WSW,247,0.0,0.0,82,0.00,,,0.00,WUHU21636XXSP,2013-04-13 10:17:00,
2013-04-13 05:22:00,39.0,34.0,29.95,West,270,2.9,2.9,83,0.00,,,0.00,WUHU21636XXSP,2013-04-13 10:22:00,
2013-04-13 05:28:00,38.7,33.8,29.95,WSW,247,2.6,2.9,83,0.00,,,0.00,WUHU21636XXSP,2013-04-13 10:28:00,
2013-04-13 05:33:00,38.3,33.4,29.96,West,270,0.0,2.9,83,0.00,,,0.00,WUHU21636XXSP,2013-04-13 10:33:00,
2013-04-13 05:38:00,38.1,33.6,29.96,West,270,2.4,2.6,84,0.00,,,0.00,WUHU21636XXSP,2013-04-13 10:38:00,
2013-04-13 05:43:00,38.3,33.8,29.96,WSW,247,1.7,6.9,84,0.00,,,0.00,WUHU21636XXSP,2013-04-13 10:43:00,
2013-04-13 05:48:00,38.1,33.6,29.96,WSW,247,0.0,6.9,84,0.00,,,0.00,WUHU21636XXSP,2013-04-13 10:48:00,
2013-04-13 05:53:00,38.1,33.6,29.96,West,270,3.8,3.8,84,0.00,,,0.00,WUHU21636XXSP,2013-04-13 10:53:00,
2013-04-13 05:58:00,37.9,33.8,29.96,SW,225,0.8,3.8,85,0.00,,,0.00,WUHU21636XXSP,2013-04-13 10:58:00,
2013-04-13 06:08:00,37.9,33.8,29.96,WSW,248,0.5,3.8,85,0.00,,,0.00,WUHU21636XXSP,2013-04-13 11:08:00,
2013-04-13 06:13:00,37.6,33.4,29.96,WSW,247,0.0,1.5,85,0.00,,,0.00,WUHU21636XXSP,2013-04-13 11:13:00,
2013-04-13 06:18:00,37.6,33.6,29.96,WSW,247,2.4,4.2,86,0.00,,,0.00,WUHU21636XXSP,2013-04-13 11:18:00,
2013-04-13 06:23:00,37.6,33.6,29.96,WSW,247,0.0,4.2,86,0.00,,,0.00,WUHU21636XXSP,2013-04-13 11:23:00,
2013-04-13 06:28:00,37.2,33.3,29.96,West,270,1.5,2.4,86,0.00,,,0.00,WUHU21636XXSP,2013-04-13 11:28:00,
2013-04-13 06:33:00,37.2,33.3,29.96,WSW,247,3.5,3.5,86,0.00,,,0.00,WUHU21636XXSP,2013-04-13 11:33:00,
2013-04-13 06:38:00,37.6,33.4,29.96,West,270,2.2,4.0,85,0.00,,,0.00,WUHU21636XXSP,2013-04-13 11:38:00,
2013-04-13 06:43:00,37.6,33.4,29.97,West,270,3.1,4.0,85,0.00,,,0.00,WUHU21636XXSP,2013-04-13 11:43:00,
2013-04-13 06:48:00,37.8,33.3,29.97,West,270,4.0,4.0,84,0.00,,,0.00,WUHU21636XXSP,2013-04-13 11:48:00,
2013-04-13 06:53:00,37.9,33.4,29.97,West,270,4.2,4.2,84,0.00,,,0.00,WUHU21636XXSP,2013-04-13 11:53:00,
2013-04-13 06:59:00,38.1,33.6,29.97,West,270,3.8,7.3,84,0.00,,,0.00,WUHU21636XXSP,2013-04-13 11:59:00,
2013-04-13 07:05:00,38.1,33.3,29.98,West,270,3.1,7.3,83,0.00,,,0.00,WUHU21636XXSP,2013-04-13 12:05:00,
2013-04-13 07:10:00,38.3,33.4,29.98,West,270,2.6,10.7,83,0.00,,,0.00,WUHU21636XXSP,2013-04-13 12:10:00,
2013-04-13 07:15:00,38.5,33.4,29.99,West,270,5.3,12.5,82,0.00,,,0.00,WUHU21636XXSP,2013-04-13 12:15:00,
2013-04-13 07:20:00,38.5,33.4,29.99,WNW,292,5.8,12.5,82,0.00,,,0.00,WUHU21636XXSP,2013-04-13 12:20:00,
2013-04-13 07:25:00,38.7,33.1,29.99,West,270,3.5,13.4,80,0.00,,,0.00,WUHU21636XXSP,2013-04-13 12:25:00,
2013-04-13 07:30:00,38.8,32.9,29.99,West,270,8.9,18.3,79,0.00,,,0.00,WUHU21636XXSP,2013-04-13 12:30:00,
2013-04-13 07:35:00,39.0,32.7,29.99,West,270,2.4,18.3,78,0.00,,,0.00,WUHU21636XXSP,2013-04-13 12:35:00,
2013-04-13 07:40:00,39.2,32.5,30.00,West,270,3.8,15.8,77,0.00,,,0.00,WUHU21636XXSP,2013-04-13 12:40:00,
2013-04-13 07:45:00,39.4,32.0,30.00,WNW,292,4.2,20.1,75,0.00,,,0.00,WUHU21636XXSP,2013-04-13 12:45:00,
2013-04-13 07:50:00,39.6,32.2,30.00,West,270,3.3,20.1,75,0.00,,,0.00,WUHU21636XXSP,2013-04-13 12:50:00,
2013-04-13 07:55:00,40.3,31.8,30.00,West,270,6.4,12.9,72,0.00,,,0.00,WUHU21636XXSP,2013-04-13 12:55:00,
2013-04-13 08:01:00,39.9,31.1,30.00,NW,315,14.3,21.9,71,0.00,,,0.00,WUHU21636XXSP,2013-04-13 13:01:00,
2013-04-13 08:07:00,39.4,29.8,30.00,WNW,292,14.7,23.2,69,0.00,,,0.00,WUHU21636XXSP,2013-04-13 13:07:00,
2013-04-13 08:12:00,39.6,30.6,30.00,WNW,292,7.6,25.0,70,0.00,,,0.00,WUHU21636XXSP,2013-04-13 13:12:00,
2013-04-13 08:18:00,39.7,29.8,30.00,NW,315,5.5,21.0,68,0.00,,,0.00,WUHU21636XXSP,2013-04-13 13:18:00,
2013-04-13 08:23:00,40.3,30.0,30.01,WNW,292,11.8,17.4,67,0.00,,,0.00,WUHU21636XXSP,2013-04-13 13:23:00,
2013-04-13 08:28:00,40.6,30.7,30.00,West,270,5.3,16.3,68,0.00,,,0.00,WUHU21636XXSP,2013-04-13 13:28:00,
2013-04-13 08:33:00,40.6,30.7,30.01,WNW,292,3.3,12.7,68,0.00,,,0.00,WUHU21636XXSP,2013-04-13 13:33:00,
2013-04-13 08:38:00,41.4,30.7,30.01,West,270,5.8,13.8,66,0.00,,,0.00,WUHU21636XXSP,2013-04-13 13:38:00,
2013-04-13 08:43:00,41.9,31.3,30.01,West,270,7.8,13.8,66,0.00,,,0.00,WUHU21636XXSP,2013-04-13 13:43:00,
2013-04-13 08:48:00,41.4,30.4,30.02,West,270,7.6,16.5,65,0.00,,,0.00,WUHU21636XXSP,2013-04-13 13:48:00,
2013-04-13 08:53:00,42.1,31.1,30.01,West,270,5.8,20.1,65,0.00,,,0.00,WUHU21636XXSP,2013-04-13 13:53:00,
2013-04-13 08:58:00,42.6,30.7,30.01,WNW,292,6.7,20.1,63,0.00,,,0.00,WUHU21636XXSP,2013-04-13 13:58:00,
2013-04-13 09:04:00,43.2,31.3,30.01,West,270,5.8,18.7,63,0.00,,,0.00,WUHU21636XXSP,2013-04-13 14:04:00,
2013-04-13 09:09:00,44.2,31.6,30.01,West,270,6.9,17.6,61,0.00,,,0.00,WUHU21636XXSP,2013-04-13 14:09:00,
2013-04-13 09:14:00,44.1,30.6,30.01,NW,315,14.7,19.2,59,0.00,,,0.00,WUHU21636XXSP,2013-04-13 14:14:00,
2013-04-13 09:19:00,43.3,31.5,30.01,West,270,6.0,19.2,63,0.00,,,0.00,WUHU21636XXSP,2013-04-13 14:19:00,
2013-04-13 09:24:00,43.2,31.3,30.02,WNW,292,9.3,24.1,63,0.00,,,0.00,WUHU21636XXSP,2013-04-13 14:24:00,
2013-04-13 09:29:00,43.7,31.5,30.01,NNW,337,13.6,24.1,62,0.00,,,0.00,WUHU21636XXSP,2013-04-13 14:29:00,
2013-04-13 09:34:00,44.2,31.6,30.02,West,270,3.3,21.6,61,0.00,,,0.00,WUHU21636XXSP,2013-04-13 14:34:00,
2013-04-13 09:39:00,44.2,32.4,30.01,West,270,6.7,19.2,63,0.00,,,0.00,WUHU21636XXSP,2013-04-13 14:39:00,
2013-04-13 09:44:00,44.4,31.8,30.02,SW,225,7.8,17.6,61,0.00,,,0.00,WUHU21636XXSP,2013-04-13 14:44:00,
2013-04-13 09:50:00,44.8,31.6,30.02,West,270,5.8,17.0,60,0.00,,,0.00,WUHU21636XXSP,2013-04-13 14:50:00,
2013-04-13 09:55:00,44.8,30.7,30.02,West,270,12.5,20.1,58,0.00,,,0.00,WUHU21636XXSP,2013-04-13 14:55:00,
2013-04-13 10:00:00,44.4,32.5,30.02,WNW,292,6.7,20.1,63,0.00,,,0.00,WUHU21636XXSP,2013-04-13 15:00:00,
2013-04-13 10:05:00,45.0,31.8,30.03,West,270,10.0,21.4,60,0.00,,,0.00,WUHU21636XXSP,2013-04-13 15:05:00,
2013-04-13 10:11:00,45.3,32.5,30.03,WSW,247,3.3,21.4,61,0.00,,,0.00,WUHU21636XXSP,2013-04-13 15:11:00,
2013-04-13 10:16:00,46.8,33.6,30.03,NW,315,6.9,16.5,60,0.00,,,0.00,WUHU21636XXSP,2013-04-13 15:16:00,
2013-04-13 10:21:00,48.0,33.8,30.03,West,270,5.5,16.5,58,0.00,,,0.00,WUHU21636XXSP,2013-04-13 15:21:00,
2013-04-13 10:26:00,47.3,32.7,30.03,West,270,4.9,19.4,57,0.00,,,0.00,WUHU21636XXSP,2013-04-13 15:26:00,
2013-04-13 10:31:00,47.3,32.7,30.04,WSW,247,4.2,19.4,57,0.00,,,0.00,WUHU21636XXSP,2013-04-13 15:31:00,
2013-04-13 10:36:00,45.5,32.0,30.04,NW,315,12.7,19.4,59,0.00,,,0.00,WUHU21636XXSP,2013-04-13 15:36:00,
2013-04-13 10:42:00,46.0,33.3,30.04,West,270,4.0,19.4,61,0.00,,,0.00,WUHU21636XXSP,2013-04-13 15:42:00,
2013-04-13 10:47:00,46.6,33.8,30.04,WNW,292,4.4,14.7,61,0.00,,,0.00,WUHU21636XXSP,2013-04-13 15:47:00,
2013-04-13 10:52:00,46.9,34.5,30.04,SW,225,6.7,17.2,62,0.00,,,0.00,WUHU21636XXSP,2013-04-13 15:52:00,
2013-04-13 10:57:00,49.1,34.9,30.04,WSW,247,6.7,17.2,58,0.00,,,0.00,WUHU21636XXSP,2013-04-13 15:57:00,
2013-04-13 11:02:00,48.9,33.8,30.04,NW,315,10.9,16.3,56,0.00,,,0.00,WUHU21636XXSP,2013-04-13 16:02:00,
2013-04-13 11:07:00,48.4,34.2,30.04,West,270,5.3,16.3,58,0.00,,,0.00,WUHU21636XXSP,2013-04-13 16:07:00,
2013-04-13 11:12:00,50.5,34.3,30.04,West,270,4.6,12.5,54,0.00,,,0.00,WUHU21636XXSP,2013-04-13 16:12:00,
2013-04-13 11:17:00,51.6,34.9,30.04,West,270,3.8,10.5,53,0.00,,,0.00,WUHU21636XXSP,2013-04-13 16:17:00,
2013-04-13 11:22:00,52.7,36.0,30.04,West,270,2.0,9.8,53,0.00,,,0.00,WUHU21636XXSP,2013-04-13 16:22:00,
2013-04-13 11:28:00,49.8,33.8,30.04,West,270,7.1,12.3,54,0.00,,,0.00,WUHU21636XXSP,2013-04-13 16:28:00,
2013-04-13 11:33:00,49.6,33.1,30.04,NW,315,10.2,17.6,53,0.00,,,0.00,WUHU21636XXSP,2013-04-13 16:33:00,
2013-04-13 11:38:00,49.3,32.7,30.04,WNW,292,12.7,17.6,53,0.00,,,0.00,WUHU21636XXSP,2013-04-13 16:38:00,
2013-04-13 11:43:00,49.6,34.5,30.04,West,270,5.5,18.5,56,0.00,,,0.00,WUHU21636XXSP,2013-04-13 16:43:00,
2013-04-13 11:48:00,50.9,34.7,30.04,West,270,3.5,18.5,54,0.00,,,0.00,WUHU21636XXSP,2013-04-13 16:48:00,
2013-04-13 11:53:00,50.7,35.4,30.04,West,270,3.8,23.9,56,0.00,,,0.00,WUHU21636XXSP,2013-04-13 16:53:00,
2013-04-13 11:58:00,51.1,34.3,30.03,NW,315,13.1,23.9,53,0.00,,,0.00,WUHU21636XXSP,2013-04-13 16:58:00,
2013-04-13 12:03:00,50.0,34.3,30.03,West,270,2.4,17.2,55,0.00,,,0.00,WUHU21636XXSP,2013-04-13 17:03:00,
2013-04-13 12:08:00,50.5,34.9,30.03,WNW,292,2.0,15.4,55,0.00,,,0.00,WUHU21636XXSP,2013-04-13 17:08:00,
2013-04-13 12:13:00,49.6,33.1,30.03,South,180,4.9,14.5,53,0.00,,,0.00,WUHU21636XXSP,2013-04-13 17:13:00,
2013-04-13 12:19:00,52.3,36.0,30.03,NW,315,3.3,14.5,54,0.00,,,0.00,WUHU21636XXSP,2013-04-13 17:19:00,
2013-04-13 12:24:00,53.2,36.3,30.03,West,270,2.9,12.9,53,0.00,,,0.00,WUHU21636XXSP,2013-04-13 17:24:00,
2013-04-13 12:29:00,51.8,33.8,30.03,NW,315,8.5,16.1,50,0.00,,,0.00,WUHU21636XXSP,2013-04-13 17:29:00,
2013-04-13 12:34:00,52.7,35.4,30.03,NW,315,8.0,16.1,52,0.00,,,0.00,WUHU21636XXSP,2013-04-13 17:34:00,
2013-04-13 12:39:00,53.8,36.5,30.02,West,270,8.2,12.5,52,0.00,,,0.00,WUHU21636XXSP,2013-04-13 17:39:00,
2013-04-13 12:44:00,55.0,37.0,30.02,West,270,5.1,19.0,51,0.00,,,0.00,WUHU21636XXSP,2013-04-13 17:44:00,
2013-04-13 12:49:00,55.2,36.3,30.02,SW,225,6.4,19.0,49,0.00,,,0.00,WUHU21636XXSP,2013-04-13 17:49:00,
2013-04-13 12:55:00,55.6,37.6,30.02,WSW,247,0.6,12.0,51,0.00,,,0.00,WUHU21636XXSP,2013-04-13 17:55:00,
2013-04-13 13:00:00,55.8,37.8,30.02,West,270,4.9,11.8,51,0.00,,,0.00,WUHU21636XXSP,2013-04-13 18:00:00,
2013-04-13 13:05:00,54.3,34.9,30.02,NW,315,5.3,12.5,48,0.00,,,0.00,WUHU21636XXSP,2013-04-13 18:05:00,
2013-04-13 13:10:00,54.5,36.1,30.02,WSW,247,5.8,14.3,50,0.00,,,0.00,WUHU21636XXSP,2013-04-13 18:10:00,
2013-04-13 13:15:00,55.4,37.4,30.02,West,270,3.3,14.3,51,0.00,,,0.00,WUHU21636XXSP,2013-04-13 18:15:00,
2013-04-13 13:20:00,55.2,36.3,30.01,WSW,247,1.5,11.1,50,0.00,,,0.00,WUHU21636XXSP,2013-04-13 18:20:00,
2013-04-13 13:25:00,54.9,37.4,30.01,West,270,4.0,14.3,52,0.00,,,0.00,WUHU21636XXSP,2013-04-13 18:25:00,
2013-04-13 13:27:00,55.0,37.0,30.01,NW,315,6.4,14.3,51,0.00,,,0.00,WUHU21636XXSP,2013-04-13 18:27:00,
2013-04-13 13:32:00,56.1,38.1,30.01,WSW,247,5.3,13.4,51,0.00,,,0.00,WUHU21636XXSP,2013-04-13 18:32:00,
2013-04-13 13:37:00,56.5,35.2,30.01,NW,315,10.9,15.2,45,0.00,,,0.00,WUHU21636XXSP,2013-04-13 18:37:00,
2013-04-13 13:42:00,56.5,38.1,30.01,West,270,3.8,15.2,50,0.00,,,0.00,WUHU21636XXSP,2013-04-13 18:42:00,
2013-04-13 13:47:00,56.8,36.1,30.01,West,270,6.7,14.3,46,0.00,,,0.00,WUHU21636XXSP,2013-04-13 18:47:00,
2013-04-13 13:52:00,56.1,35.4,30.01,West,270,2.2,14.3,46,0.00,,,0.00,WUHU21636XXSP,2013-04-13 18:52:00,
2013-04-13 13:57:00,55.6,36.0,30.01,NW,315,7.1,13.1,48,0.00,,,0.00,WUHU21636XXSP,2013-04-13 18:57:00,
2013-04-13 14:02:00,55.0,34.9,30.01,NW,315,13.8,18.5,47,0.00,,,0.00,WUHU21636XXSP,2013-04-13 19:02:00,
2013-04-13 14:07:00,54.7,36.9,30.00,West,270,2.6,18.5,51,0.00,,,0.00,WUHU21636XXSP,2013-04-13 19:07:00,
2013-04-13 14:12:00,55.2,35.1,30.00,NW,315,10.9,14.9,47,0.00,,,0.00,WUHU21636XXSP,2013-04-13 19:12:00,
2013-04-13 14:17:00,55.6,35.4,30.00,West,270,5.3,13.4,47,0.00,,,0.00,WUHU21636XXSP,2013-04-13 19:17:00,
2013-04-13 14:22:00,55.2,36.3,30.00,West,270,4.0,15.6,49,0.00,,,0.00,WUHU21636XXSP,2013-04-13 19:22:00,
2013-04-13 14:27:00,57.0,37.4,30.00,WSW,247,0.0,15.6,48,0.00,,,0.00,WUHU21636XXSP,2013-04-13 19:27:00,
2013-04-13 14:32:00,59.5,38.5,30.00,West,270,2.0,7.6,46,0.00,,,0.00,WUHU21636XXSP,2013-04-13 19:32:00,
2013-04-13 14:38:00,58.8,36.7,30.00,West,270,2.6,7.6,44,0.00,,,0.00,WUHU21636XXSP,2013-04-13 19:38:00,
2013-04-13 14:43:00,57.7,35.8,29.99,NW,315,12.7,19.9,44,0.00,,,0.00,WUHU21636XXSP,2013-04-13 19:43:00,
2013-04-13 14:48:00,56.8,36.1,30.00,NW,315,8.9,19.9,46,0.00,,,0.00,WUHU21636XXSP,2013-04-13 19:48:00,
2013-04-13 14:53:00,57.6,37.4,29.99,WSW,247,6.9,16.5,47,0.00,,,0.00,WUHU21636XXSP,2013-04-13 19:53:00,
2013-04-13 14:58:00,58.8,37.9,29.99,West,270,2.6,14.9,46,0.00,,,0.00,WUHU21636XXSP,2013-04-13 19:58:00,
2013-04-13 15:03:00,57.2,35.2,29.99,WNW,292,9.6,14.9,44,0.00,,,0.00,WUHU21636XXSP,2013-04-13 20:03:00,
2013-04-13 15:08:00,57.2,36.0,29.99,NW,315,5.8,20.5,45,0.00,,,0.00,WUHU21636XXSP,2013-04-13 20:08:00,
2013-04-13 15:13:00,57.0,35.1,29.99,NW,315,6.9,20.5,44,0.02,,,0.02,WUHU21636XXSP,2013-04-13 20:13:00,
2013-04-13 15:18:00,57.6,35.1,29.99,West,270,13.4,19.2,43,0.02,,,0.02,WUHU21636XXSP,2013-04-13 20:18:00,
2013-04-13 15:23:00,58.1,36.7,29.99,WNW,292,4.4,18.1,45,0.02,,,0.02,WUHU21636XXSP,2013-04-13 20:23:00,
2013-04-13 15:28:00,57.9,36.0,29.99,West,270,5.1,14.9,44,0.02,,,0.02,WUHU21636XXSP,2013-04-13 20:28:00,
2013-04-13 15:33:00,59.2,38.3,29.99,West,270,4.6,14.9,46,0.02,,,0.02,WUHU21636XXSP,2013-04-13 20:33:00,
2013-04-13 15:38:00,59.4,36.1,29.99,West,270,3.3,10.2,42,0.02,,,0.02,WUHU21636XXSP,2013-04-13 20:38:00,
2013-04-13 15:43:00,59.2,37.6,29.99,West,270,1.3,4.6,45,0.02,,,0.02,WUHU21636XXSP,2013-04-13 20:43:00,
2013-04-13 15:48:00,56.7,36.0,29.98,West,270,2.9,14.3,46,0.02,,,0.02,WUHU21636XXSP,2013-04-13 20:48:00,
2013-04-13 15:53:00,55.9,36.9,29.98,WSW,247,2.2,14.3,49,0.02,,,0.02,WUHU21636XXSP,2013-04-13 20:53:00,
2013-04-13 15:58:00,55.9,36.3,29.98,West,270,6.0,10.2,48,0.02,,,0.02,WUHU21636XXSP,2013-04-13 20:58:00,
2013-04-13 16:03:00,55.9,36.3,29.98,NW,315,7.3,10.2,48,0.02,,,0.02,WUHU21636XXSP,2013-04-13 21:03:00,
2013-04-13 16:08:00,55.9,37.6,29.98,WSW,247,2.6,9.8,50,0.02,,,0.02,WUHU21636XXSP,2013-04-13 21:08:00,
2013-04-13 16:13:00,56.1,36.5,29.97,WSW,247,3.1,8.7,48,0.02,,,0.02,WUHU21636XXSP,2013-04-13 21:13:00,
2013-04-13 16:18:00,56.1,36.5,29.97,West,270,4.4,10.9,48,0.02,,,0.02,WUHU21636XXSP,2013-04-13 21:18:00,
2013-04-13 16:23:00,56.1,35.4,29.98,WSW,247,2.4,10.9,46,0.02,,,0.02,WUHU21636XXSP,2013-04-13 21:23:00,
2013-04-13 16:28:00,56.3,35.1,29.97,NW,315,0.0,7.8,45,0.02,,,0.02,WUHU21636XXSP,2013-04-13 21:28:00,
2013-04-13 16:33:00,56.3,36.7,29.97,WSW,247,4.2,12.9,48,0.02,,,0.02,WUHU21636XXSP,2013-04-13 21:33:00,
2013-04-13 16:38:00,56.1,37.0,29.97,WSW,247,0.4,12.9,46,0.02,,,0.02,WUHU21636XXSP,2013-04-13 21:38:00,
2013-04-13 16:43:00,56.1,36.0,29.97,WSW,247,2.9,9.6,47,0.02,,,0.02,WUHU21636XXSP,2013-04-13 21:43:00,
2013-04-13 16:48:00,56.3,36.1,29.97,NW,315,8.0,9.6,47,0.02,,,0.02,WUHU21636XXSP,2013-04-13 21:48:00,
2013-04-13 16:53:00,55.9,35.2,29.97,North,0,7.8,16.3,46,0.02,,,0.02,WUHU21636XXSP,2013-04-13 21:53:00,
2013-04-13 16:58:00,56.1,36.0,29.97,NW,315,9.3,16.3,47,0.02,,,0.02,WUHU21636XXSP,2013-04-13 21:58:00,
2013-04-13 17:03:00,56.1,36.0,29.97,West,270,2.4,10.7,47,0.00,,,0.02,WUHU21636XXSP,2013-04-13 22:03:00,
2013-04-13 17:08:00,55.8,35.1,29.96,WNW,292,1.7,10.2,46,0.00,,,0.02,WUHU21636XXSP,2013-04-13 22:08:00,
2013-04-13 17:13:00,55.9,35.8,29.97,West,270,2.2,8.2,48,0.00,,,0.02,WUHU21636XXSP,2013-04-13 22:13:00,
2013-04-13 17:18:00,56.8,36.7,29.96,WSW,247,4.6,4.6,47,0.00,,,0.02,WUHU21636XXSP,2013-04-13 22:18:00,
2013-04-13 17:23:00,56.8,36.7,29.96,WSW,247,2.0,7.8,46,0.00,,,0.02,WUHU21636XXSP,2013-04-13 22:23:00,
2013-04-13 17:28:00,56.8,36.1,29.96,SW,225,2.0,7.8,46,0.00,,,0.02,WUHU21636XXSP,2013-04-13 22:28:00,
2013-04-13 17:33:00,57.4,37.2,29.96,West,270,4.2,4.4,47,0.00,,,0.02,WUHU21636XXSP,2013-04-13 22:33:00,
2013-04-13 17:38:00,57.0,36.3,29.96,West,270,1.3,4.2,47,0.00,,,0.02,WUHU21636XXSP,2013-04-13 22:38:00,
2013-04-13 17:43:00,56.1,36.0,29.97,WNW,292,3.5,9.8,47,0.00,,,0.02,WUHU21636XXSP,2013-04-13 22:43:00,
2013-04-13 17:48:00,55.9,35.8,29.96,SW,225,3.5,10.0,47,0.00,,,0.02,WUHU21636XXSP,2013-04-13 22:48:00,
2013-04-13 17:53:00,55.9,35.2,29.97,West,270,0.0,10.0,47,0.00,,,0.02,WUHU21636XXSP,2013-04-13 22:53:00,
2013-04-13 17:58:00,55.6,34.9,29.96,SW,225,0.0,8.0,47,0.00,,,0.02,WUHU21636XXSP,2013-04-13 22:58:00,
2013-04-13 18:03:00,55.6,34.9,29.96,WSW,247,0.0,3.5,48,0.00,,,0.02,WUHU21636XXSP,2013-04-13 23:03:00,
2013-04-13 18:08:00,55.6,34.9,29.96,SW,225,0.0,3.5,48,0.00,,,0.02,WUHU21636XXSP,2013-04-13 23:08:00,
2013-04-13 18:13:00,55.6,34.9,29.96,WSW,247,0.0,3.5,49,0.00,,,0.02,WUHU21636XXSP,2013-04-13 23:13:00,
2013-04-13 18:18:00,55.8,36.7,29.97,West,270,2.9,2.9,49,0.00,,,0.02,WUHU21636XXSP,2013-04-13 23:18:00,
2013-04-13 18:23:00,55.2,35.6,29.96,West,270,0.0,2.9,48,0.00,,,0.02,WUHU21636XXSP,2013-04-13 23:23:00,
2013-04-13 18:28:00,55.0,36.1,29.96,West,270,2.0,2.9,49,0.00,,,0.02,WUHU21636XXSP,2013-04-13 23:28:00,
2013-04-13 18:33:00,54.7,35.8,29.96,WSW,247,0.0,2.6,50,0.00,,,0.02,WUHU21636XXSP,2013-04-13 23:33:00,
2013-04-13 18:38:00,54.3,36.0,29.96,WSW,247,0.0,2.6,50,0.00,,,0.02,WUHU21636XXSP,2013-04-13 23:38:00,
2013-04-13 18:43:00,54.3,36.0,29.97,WSW,247,0.0,0.0,51,0.00,,,0.02,WUHU21636XXSP,2013-04-13 23:43:00,
2013-04-13 18:48:00,54.3,36.0,29.96,WSW,247,0.0,0.0,51,0.00,,,0.02,WUHU21636XXSP,2013-04-13 23:48:00,
2013-04-13 18:53:00,54.1,36.3,29.96,WSW,247,0.8,0.8,50,0.00,,,0.02,WUHU21636XXSP,2013-04-13 23:53:00,
2013-04-13 18:58:00,54.1,36.3,29.96,WNW,292,1.3,1.3,51,0.00,,,0.02,WUHU21636XXSP,2013-04-13 23:58:00,
2013-04-13 19:03:00,54.1,36.3,29.96,WNW,292,0.0,1.3,51,0.00,,,0.02,WUHU21636XXSP,2013-04-14 00:03:00,
2013-04-13 19:08:00,54.0,36.7,29.96,West,270,0.0,1.3,53,0.00,,,0.02,WUHU21636XXSP,2013-04-14 00:08:00,
2013-04-13 19:13:00,53.8,36.9,29.96,West,270,0.0,0.0,53,0.00,,,0.02,WUHU21636XXSP,2013-04-14 00:13:00,
2013-04-13 19:18:00,53.6,36.7,29.96,SW,225,0.0,0.0,53,0.00,,,0.02,WUHU21636XXSP,2013-04-14 00:18:00,
2013-04-13 19:23:00,53.2,36.9,29.96,SW,225,0.0,0.0,54,0.00,,,0.02,WUHU21636XXSP,2013-04-14 00:23:00,
2013-04-13 19:28:00,53.2,36.9,29.95,SW,225,0.0,0.0,55,0.00,,,0.02,WUHU21636XXSP,2013-04-14 00:28:00,
2013-04-13 19:33:00,53.1,37.2,29.95,SW,225,0.0,0.0,55,0.00,,,0.02,WUHU21636XXSP,2013-04-14 00:33:00,
2013-04-13 19:38:00,52.9,36.5,29.95,SW,225,0.0,0.0,54,0.00,,,0.02,WUHU21636XXSP,2013-04-14 00:38:00,
2013-04-13 19:43:00,52.7,36.0,29.95,SW,225,0.0,0.0,53,0.00,,,0.02,WUHU21636XXSP,2013-04-14 00:43:00,
2013-04-13 19:48:00,52.5,36.1,29.95,SW,225,0.0,0.0,54,0.00,,,0.02,WUHU21636XXSP,2013-04-14 00:48:00,
2013-04-13 19:53:00,52.3,36.5,29.95,SW,225,0.0,0.0,56,0.00,,,0.02,WUHU21636XXSP,2013-04-14 00:53:00,
2013-04-13 19:58:00,52.2,36.3,29.95,SW,225,0.0,0.0,55,0.00,,,0.02,WUHU21636XXSP,2013-04-14 00:58:00,
2013-04-13 20:03:00,52.2,36.3,29.95,SW,225,0.0,0.0,56,0.00,,,0.02,WUHU21636XXSP,2013-04-14 01:03:00,
2013-04-13 20:08:00,51.6,36.3,29.95,SW,225,0.0,0.0,56,0.00,,,0.02,WUHU21636XXSP,2013-04-14 01:08:00,
2013-04-13 20:13:00,51.1,36.1,29.94,SW,225,0.0,0.0,57,0.00,,,0.02,WUHU21636XXSP,2013-04-14 01:13:00,
2013-04-13 20:18:00,50.5,36.1,29.94,SW,225,0.0,0.0,58,0.00,,,0.02,WUHU21636XXSP,2013-04-14 01:18:00,
2013-04-13 20:23:00,50.4,36.0,29.95,SW,225,0.0,0.0,59,0.00,,,0.02,WUHU21636XXSP,2013-04-14 01:23:00,
2013-04-13 20:28:00,50.2,36.7,29.95,SW,225,0.0,0.0,60,0.00,,,0.02,WUHU21636XXSP,2013-04-14 01:28:00,
2013-04-13 20:33:00,50.0,36.7,29.95,SW,225,0.0,0.0,61,0.00,,,0.02,WUHU21636XXSP,2013-04-14 01:33:00,
2013-04-13 20:38:00,49.8,36.9,29.94,SW,225,0.0,0.0,61,0.00,,,0.02,WUHU21636XXSP,2013-04-14 01:38:00,
2013-04-13 20:43:00,49.5,36.9,29.94,SW,225,0.0,0.0,62,0.00,,,0.02,WUHU21636XXSP,2013-04-14 01:43:00,
2013-04-13 20:48:00,49.1,36.9,29.94,SW,225,0.0,0.0,63,0.00,,,0.02,WUHU21636XXSP,2013-04-14 01:48:00,
2013-04-13 20:53:00,49.5,37.2,29.94,SW,225,0.0,0.0,63,0.00,,,0.02,WUHU21636XXSP,2013-04-14 01:53:00,
2013-04-13 20:58:00,49.3,37.6,29.94,SW,225,0.0,0.0,64,0.00,,,0.02,WUHU21636XXSP,2013-04-14 01:58:00,
2013-04-13 21:03:00,49.1,37.4,29.94,SW,225,0.0,0.0,64,0.00,,,0.02,WUHU21636XXSP,2013-04-14 02:03:00,
2013-04-13 21:08:00,48.9,36.9,29.94,SW,225,0.0,0.0,63,0.00,,,0.02,WUHU21636XXSP,2013-04-14 02:08:00,
2013-04-13 21:13:00,48.9,36.9,29.94,SW,225,0.0,0.0,64,0.00,,,0.02,WUHU21636XXSP,2013-04-14 02:13:00,
2013-04-13 21:18:00,48.7,37.0,29.94,SW,225,0.0,0.0,64,0.00,,,0.02,WUHU21636XXSP,2013-04-14 02:18:00,
2013-04-13 21:23:00,48.6,37.2,29.94,SW,225,0.0,0.0,65,0.00,,,0.02,WUHU21636XXSP,2013-04-14 02:23:00,
2013-04-13 21:28:00,48.4,37.0,29.94,SW,225,0.0,0.0,67,0.00,,,0.02,WUHU21636XXSP,2013-04-14 02:28:00,
2013-04-13 21:33:00,48.0,36.7,29.94,SW,225,0.0,0.0,65,0.00,,,0.02,WUHU21636XXSP,2013-04-14 02:33:00,
2013-04-13 21:38:00,48.2,37.6,29.94,SW,225,0.0,0.0,67,0.00,,,0.02,WUHU21636XXSP,2013-04-14 02:38:00,
2013-04-13 21:43:00,48.4,37.4,29.94,SW,225,0.0,0.0,66,0.00,,,0.02,WUHU21636XXSP,2013-04-14 02:43:00,
2013-04-13 21:48:00,48.7,37.8,29.94,SW,225,0.0,0.0,66,0.00,,,0.02,WUHU21636XXSP,2013-04-14 02:48:00,
2013-04-13 21:53:00,49.1,37.8,29.94,SSW,202,0.0,0.0,65,0.00,,,0.02,WUHU21636XXSP,2013-04-14 02:53:00,
2013-04-13 21:58:00,49.5,38.1,29.94,SSW,202,0.0,0.0,65,0.00,,,0.02,WUHU21636XXSP,2013-04-14 02:58:00,
2013-04-13 22:03:00,49.6,38.3,29.94,South,180,0.0,0.0,64,0.00,,,0.02,WUHU21636XXSP,2013-04-14 03:03:00,
2013-04-13 22:08:00,49.6,38.3,29.94,South,180,0.0,0.0,64,0.00,,,0.02,WUHU21636XXSP,2013-04-14 03:08:00,
2013-04-13 22:13:00,49.8,37.9,29.94,SE,135,0.6,0.6,64,0.00,,,0.02,WUHU21636XXSP,2013-04-14 03:13:00,
2013-04-13 22:18:00,49.8,37.9,29.94,SE,135,0.0,0.6,64,0.00,,,0.02,WUHU21636XXSP,2013-04-14 03:18:00,
2013-04-13 22:23:00,49.6,37.8,29.94,SE,135,0.0,0.6,64,0.00,,,0.02,WUHU21636XXSP,2013-04-14 03:23:00,
2013-04-13 22:28:00,49.5,37.6,29.94,SE,135,0.0,1.1,64,0.00,,,0.02,WUHU21636XXSP,2013-04-14 03:28:00,
2013-04-13 22:33:00,49.3,37.9,29.93,SE,135,0.0,1.1,65,0.00,,,0.02,WUHU21636XXSP,2013-04-14 03:33:00,
2013-04-13 22:38:00,49.3,37.9,29.94,SE,135,0.0,0.0,66,0.00,,,0.02,WUHU21636XXSP,2013-04-14 03:38:00,
2013-04-13 22:43:00,49.3,37.9,29.93,SE,135,0.0,0.0,67,0.00,,,0.02,WUHU21636XXSP,2013-04-14 03:43:00,
2013-04-13 22:48:00,49.1,38.1,29.93,SE,135,0.0,0.0,66,0.00,,,0.02,WUHU21636XXSP,2013-04-14 03:48:00,
2013-04-13 22:53:00,48.9,37.9,29.94,SE,135,0.0,0.0,66,0.00,,,0.02,WUHU21636XXSP,2013-04-14 03:53:00,
2013-04-13 22:58:00,48.4,37.8,29.94,SE,135,0.0,0.0,67,0.00,,,0.02,WUHU21636XXSP,2013-04-14 03:58:00,
2013-04-13 23:00:00,48.4,37.8,29.94,SE,135,0.0,0.0,67,0.00,,,0.02,WUHU21636XXSP,2013-04-14 04:00:00,
2013-04-13 23:05:00,48.4,37.8,29.93,SE,135,0.0,0.0,67,0.00,,,0.02,WUHU21636XXSP,2013-04-14 04:05:00,
2013-04-13 23:10:00,48.4,37.8,29.93,SE,135,0.0,0.0,69,0.00,,,0.02,WUHU21636XXSP,2013-04-14 04:10:00,
2013-04-13 23:15:00,48.4,37.8,29.93,SE,135,0.0,0.0,70,0.00,,,0.02,WUHU21636XXSP,2013-04-14 04:15:00,
2013-04-13 23:20:00,48.4,37.8,29.93,SE,135,0.0,0.0,70,0.00,,,0.02,WUHU21636XXSP,2013-04-14 04:20:00,
2013-04-13 23:25:00,48.4,37.8,29.94,SE,135,0.0,0.0,70,0.00,,,0.02,WUHU21636XXSP,2013-04-14 04:25:00,
2013-04-13 23:30:00,48.4,37.8,29.95,SE,135,0.0,0.0,70,0.00,,,0.02,WUHU21636XXSP,2013-04-14 04:30:00,
2013-04-13 23:35:00,48.6,39.4,29.95,SE,135,0.0,0.0,71,0.00,,,0.02,WUHU21636XXSP,2013-04-14 04:35:00,
2013-04-13 23:40:00,48.7,39.6,29.94,SE,135,0.0,0.0,72,0.00,,,0.02,WUHU21636XXSP,2013-04-14 04:40:00,
2013-04-13 23:45:00,48.6,39.7,29.94,SE,135,0.0,0.0,72,0.00,,,0.02,WUHU21636XXSP,2013-04-14 04:45:00,
2013-04-13 23:50:00,48.6,39.7,29.93,SE,135,0.0,0.0,73,0.00,,,0.02,WUHU21636XXSP,2013-04-14 04:50:00,
2013-04-13 23:55:00,48.6,39.7,29.92,SE,135,0.0,3.3,73,0.00,,,0.02,WUHU21636XXSP,2013-04-14 04:55:00,